Weather History for K20U - January, 2013

Change the Weather History Date:

Tuesday, January 15, 2013

  Actual Average (KGDV) Record (KGDV)
Temperature  
Mean Temperature 26 °F -  
Max Temperature 37 °F 23 °F 46 °F (2008)
Min Temperature 14 °F 5 °F -27 °F (2005)
Degree Days  
Heating Degree Days 40    
Moisture  
Dew Point 23 °F    
Average Humidity 84    
Maximum Humidity 100    
Minimum Humidity 67    
Precipitation  
Precipitation 1.01 in - - ()
Sea Level Pressure  
Sea Level Pressure 29.82 in    
Wind  
Wind Speed 17 mph (West)    
Max Wind Speed 31 mph    
Max Gust Speed 39 mph    
Visibility 8 miles    
Events Rain , Snow    
Averages and records for this station are not official NWS values.
T = Trace of Precipitation, MM = Missing Value Source: NWS Daily Summary

Daily Weather History Graph

Daily Weather History Graph

Search for Another Location

Airport or City:

Trip Planner

Search our weather history database for the weather conditions in past years. The results will help you decide how hot, cold, wet, or windy it might be!

Date:

Astronomy

Jan. 15, 2013 Rise Set
Actual Time 7:36 AM MST 4:34 PM MST
Civil Twilight 7:02 AM MST 5:08 PM MST
Nautical Twilight 6:24 AM MST 5:46 PM MST
Astronomical Twilight 5:48 AM MST 6:22 PM MST
Moon 9:23 AM MST (1/15) 9:49 PM MST (1/15)
Length of Visible Light 10h 06m
Length of Day
8h 57m
Waxing Crescent, 20% of the Moon is Illuminated
Jan 15
Waxing Crescent
Jan 18
First Quarter
Jan 26
Full
Feb 3
Last Quarter
Feb 10
New

Hourly Weather History & Observations

Time (MST) Temp. Windchill Dew Point Humidity Pressure Visibility Wind Dir Wind Speed Gust Speed Precip Events Conditions
12:15 AM 14.0 °F -0.8 °F 5.0 °F 67% 29.91 in 10.0 mi SW 13.8 mph - N/A   Overcast
12:35 AM 14.0 °F -1.4 °F 5.0 °F 67% 29.90 in 10.0 mi SW 15.0 mph - N/A   Overcast
12:55 AM 14.0 °F 0.5 °F 6.8 °F 73% 29.90 in 10.0 mi SW 11.5 mph - N/A   Overcast
1:15 AM 14.0 °F 0.5 °F 6.8 °F 73% 29.90 in 10.0 mi SW 11.5 mph - N/A   Overcast
1:35 AM 14.0 °F 1.2 °F 6.8 °F 73% 29.90 in 10.0 mi SW 10.4 mph - N/A   Overcast
1:55 AM 14.0 °F 2.9 °F 6.8 °F 73% 29.90 in 10.0 mi SW 8.1 mph - N/A   Overcast
2:15 AM 14.0 °F 1.2 °F 6.8 °F 73% 29.90 in 10.0 mi SW 10.4 mph - N/A   Overcast
2:35 AM 14.0 °F 2.9 °F 6.8 °F 73% 29.89 in 10.0 mi SW 8.1 mph - N/A   Overcast
2:55 AM 14.0 °F -1.4 °F 6.8 °F 73% 29.87 in 10.0 mi SW 15.0 mph - N/A   Overcast
3:15 AM 14.0 °F -1.4 °F 8.6 °F 79% 29.87 in 10.0 mi SW 15.0 mph - N/A   Mostly Cloudy
3:55 AM 15.8 °F 2.7 °F 10.4 °F 79% 29.86 in 10.0 mi WSW 11.5 mph - N/A   Overcast
4:15 AM 17.6 °F 2.2 °F 12.2 °F 79% 29.86 in 10.0 mi WSW 17.3 mph - N/A   Overcast
4:35 AM 17.6 °F 3.2 °F 14.0 °F 86% 29.85 in 10.0 mi WSW 15.0 mph - N/A   Overcast
4:55 AM 19.4 °F 6.0 °F 14.0 °F 80% 29.84 in 10.0 mi WSW 13.8 mph 19.6 mph N/A   Overcast
5:15 AM 19.4 °F 6.0 °F 14.0 °F 80% 29.84 in 10.0 mi WSW 13.8 mph - N/A   Overcast
5:35 AM 19.4 °F 5.5 °F 15.8 °F 86% 29.83 in 10.0 mi WSW 15.0 mph - N/A   Overcast
5:55 AM 19.4 °F 7.2 °F 17.6 °F 93% 29.84 in 10.0 mi WSW 11.5 mph 18.4 mph N/A   Overcast
6:15 AM 19.4 °F 7.9 °F 17.6 °F 93% 29.85 in 10.0 mi WSW 10.4 mph - N/A   Overcast
6:35 AM 21.2 °F 8.9 °F 19.4 °F 93% 29.85 in 10.0 mi WSW 12.7 mph - N/A   Overcast
6:55 AM 23.0 °F 10.6 °F 19.4 °F 86% 29.84 in 10.0 mi WSW 13.8 mph 19.6 mph N/A   Overcast
7:15 AM 23.0 °F 10.1 °F 19.4 °F 86% 29.84 in 10.0 mi WSW 15.0 mph 20.7 mph N/A   Overcast
7:35 AM 23.0 °F 11.7 °F 19.4 °F 86% 29.84 in 10.0 mi WSW 11.5 mph - N/A   Overcast
7:55 AM 23.0 °F 11.1 °F 21.2 °F 93% 29.84 in 10.0 mi West 12.7 mph - N/A   Overcast
8:15 AM 24.8 °F 13.4 °F 23.0 °F 93% 29.84 in 10.0 mi WSW 12.7 mph - N/A   Overcast
8:35 AM 24.8 °F 12.4 °F 23.0 °F 93% 29.84 in 10.0 mi WSW 15.0 mph 21.9 mph N/A   Overcast
8:55 AM 24.8 °F 11.9 °F 23.0 °F 93% 29.85 in 10.0 mi West 16.1 mph - N/A   Overcast
9:15 AM 24.8 °F 10.7 °F 23.0 °F 93% 29.84 in 10.0 mi West 19.6 mph 24.2 mph N/A   Overcast
9:35 AM 26.6 °F 15.2 °F 24.8 °F 93% 29.85 in 10.0 mi West 13.8 mph - N/A   Overcast
9:55 AM 26.6 °F 13.8 °F 24.8 °F 93% 29.85 in 10.0 mi WSW 17.3 mph 24.2 mph 0.02 in Rain Light Freezing Rain
10:15 AM 26.6 °F 13.8 °F 24.8 °F 93% 29.84 in 10.0 mi WSW 17.3 mph 23.0 mph 0.03 in Snow Light Snow
10:35 AM 26.6 °F 13.8 °F 26.6 °F 100% 29.83 in 2.0 mi WSW 17.3 mph 21.9 mph 0.03 in   Mostly Cloudy
10:55 AM 28.4 °F 16.2 °F 26.6 °F 93% 29.83 in 3.0 mi WSW 17.3 mph 23.0 mph 0.03 in   Mostly Cloudy
11:15 AM 28.4 °F 15.1 °F 26.6 °F 93% 29.82 in 1.8 mi WSW 20.7 mph - N/A Snow Light Snow
11:35 AM 28.4 °F 15.1 °F 28.4 °F 100% 29.81 in 2.0 mi West 20.7 mph 27.6 mph 0.04 in Snow Light Snow
11:55 AM 30.2 °F 17.4 °F 28.4 °F 93% 29.80 in 1.2 mi West 20.7 mph - 0.16 in Snow Light Snow
12:35 PM 30.2 °F 16.8 °F 28.4 °F 93% 29.79 in 1.2 mi West 23.0 mph 28.8 mph 0.17 in Snow Light Snow
12:55 PM 30.2 °F 16.5 °F 28.4 °F 93% 29.78 in 1.8 mi West 24.2 mph 28.8 mph 0.24 in Snow Light Snow
1:15 PM 32.0 °F 18.9 °F 30.2 °F 93% 29.77 in 1.5 mi West 24.2 mph 29.9 mph 0.03 in Snow Light Snow
1:35 PM 32.0 °F 19.2 °F 30.2 °F 93% 29.77 in 1.8 mi West 23.0 mph 27.6 mph 0.06 in Snow Light Snow
1:55 PM 30.2 °F 16.8 °F 28.4 °F 93% 29.77 in 1.2 mi West 23.0 mph 29.9 mph 0.13 in Snow Light Snow
2:15 PM 32.0 °F 19.5 °F 30.2 °F 93% 29.77 in 1.0 mi West 21.9 mph 28.8 mph 0.18 in Snow Light Snow
2:35 PM 32.0 °F 20.1 °F 32.0 °F 100% 29.78 in 1.0 mi West 19.6 mph 26.5 mph 0.35 in Snow Light Snow
2:55 PM 32.0 °F 18.6 °F 32.0 °F 100% 29.77 in 2.0 mi West 25.3 mph 28.8 mph 0.39 in Snow Light Snow
3:15 PM 32.0 °F 18.1 °F 32.0 °F 100% 29.76 in 1.5 mi West 27.6 mph 35.7 mph 0.04 in Snow Light Snow
3:35 PM 32.0 °F 18.6 °F 32.0 °F 100% 29.76 in 6.0 mi West 25.3 mph - 0.01 in Snow Light Snow
3:55 PM 32.0 °F 18.4 °F 30.2 °F 93% 29.76 in 10.0 mi West 26.5 mph - 0.01 in Snow Light Snow
4:15 PM 33.8 °F 20.5 °F 30.2 °F 87% 29.75 in 10.0 mi West 27.6 mph 34.5 mph N/A   Overcast
4:35 PM 35.6 °F 23.2 °F 28.4 °F 75% 29.75 in 10.0 mi West 26.5 mph 36.8 mph N/A   Overcast
4:55 PM 35.6 °F 23.0 °F 28.4 °F 75% 29.76 in 10.0 mi West 27.6 mph 36.8 mph N/A   Overcast
5:15 PM 35.6 °F 23.7 °F 28.4 °F 75% 29.77 in 10.0 mi West 24.2 mph 31.1 mph N/A   Overcast
5:35 PM 35.6 °F 23.0 °F 28.4 °F 75% 29.77 in 10.0 mi West 27.6 mph 36.8 mph N/A   Overcast
5:55 PM 37.4 °F 25.4 °F 28.4 °F 70% 29.77 in 10.0 mi WNW 27.6 mph 39.1 mph N/A   Overcast
6:15 PM 35.6 °F 22.5 °F 28.4 °F 75% 29.77 in 10.0 mi WNW 29.9 mph 35.7 mph N/A   Overcast
6:35 PM 35.6 °F 23.2 °F 28.4 °F 75% 29.78 in 10.0 mi West 26.5 mph 35.7 mph N/A   Overcast
6:55 PM 35.6 °F 23.0 °F 28.4 °F 75% 29.79 in 10.0 mi West 27.6 mph 34.5 mph N/A   Overcast
7:15 PM 35.6 °F 23.0 °F 30.2 °F 81% 29.79 in 10.0 mi West 27.6 mph 35.7 mph N/A   Overcast
7:35 PM 35.6 °F 23.7 °F 30.2 °F 81% 29.79 in 10.0 mi West 24.2 mph 32.2 mph N/A   Overcast
7:55 PM 35.6 °F 23.7 °F 30.2 °F 81% 29.79 in 10.0 mi West 24.2 mph 28.8 mph N/A   Overcast
8:15 PM 35.6 °F 23.4 °F 30.2 °F 81% 29.79 in 10.0 mi West 25.3 mph 33.4 mph N/A   Overcast
8:35 PM 35.6 °F 23.2 °F 30.2 °F 81% 29.80 in 10.0 mi West 26.5 mph 33.4 mph N/A   Overcast
8:55 PM 35.6 °F 23.7 °F 30.2 °F 81% 29.80 in 10.0 mi West 24.2 mph 31.1 mph N/A   Overcast
9:15 PM 35.6 °F 23.7 °F 28.4 °F 75% 29.81 in 10.0 mi WNW 24.2 mph 34.5 mph N/A   Overcast
9:35 PM 37.4 °F 25.0 °F 28.4 °F 70% 29.81 in 10.0 mi WNW 29.9 mph 36.8 mph N/A   Overcast
9:55 PM 37.4 °F 25.4 °F 28.4 °F 70% 29.81 in 10.0 mi WNW 27.6 mph 34.5 mph N/A   Overcast
10:15 PM 37.4 °F 24.8 °F 30.2 °F 75% 29.82 in 10.0 mi WNW 31.1 mph 36.8 mph N/A Rain Light Rain
10:35 PM 37.4 °F 25.9 °F 28.4 °F 70% 29.82 in 10.0 mi WNW 25.3 mph 35.7 mph N/A Rain Light Rain
11:15 PM 35.6 °F 23.7 °F 30.2 °F 81% 29.81 in 10.0 mi West 24.2 mph 29.9 mph N/A   Overcast
11:35 PM 35.6 °F 24.5 °F 30.2 °F 81% 29.81 in 10.0 mi West 20.7 mph 27.6 mph N/A   Overcast
11:55 PM 35.6 °F 23.7 °F 28.4 °F 75% 29.80 in 10.0 mi West 24.2 mph 32.2 mph N/A   Overcast